Regional Weather Roundup
Issued by NWS

Home | Current Version | Previous Version | Text Only | Print | Product List | Glossary On
Versions: 1 2 3 4 5 6 7 8 9 10 11 12 13 14 15 16 17 18 19 20 21 22 23 24 25 26 27 28 29 30 31 32 33 34 35 36 37 38 39 40 41 42 43 44 45 46 47 48 49 50
000
ASUS43 KLSX 212210
RWRMO

WEATHER SUMMARY FOR MISSOURI
NATIONAL WEATHER SERVICE SPRINGFIELD MO
500 PM CDT SAT APR 21 2018

NOTE: "FAIR" INDICATES FEW OR NO CLOUDS BELOW 12,000 FEET WITH NO
       SIGNIFICANT WEATHER AND/OR OBSTRUCTIONS TO VISIBILITY.
       CURRENT SKY AND/OR WEATHER CONDITIONS ARE NOT AVAILABLE FOR
       CHILLICOTHE AND FARMINGTON.

MOZ001>031-035>038-043-044-053-054-212300-
...NORTHERN AND WESTERN MISSOURI...

CITY           SKY/WX    TMP DP  RH WIND       PRES   REMARKS
KANSAS CTY INT CLOUDY    63  31  30 E17       30.11F
KANSAS C DTWN  CLOUDY    66  31  27 E13       30.09F
LEE`S SUMMIT   CLOUDY    65  34  31 E15       30.11F
ST JOSEPH      CLOUDY    63  33  32 NE17G26   30.13F
CHILLICOTHE      N/A     62  27  26 E12G21    30.19S
KIRKSVILLE     CLOUDY    59  29  31 E9G23     30.22S

$$
MOZ066>068-077>081-088>096-101>105-212300-
...SOUTHWEST MISSOURI...

CITY           SKY/WX    TMP DP  RH WIND       PRES   REMARKS
SPRINGFIELD    CLOUDY    65  37  35 SE13      30.08S
JOPLIN         LGT RAIN  58  49  72 SE3       30.07S
BRANSON        CLOUDY    64  39  39 E14       30.09F

$$
MOZ032>034-039>042-045>050-055>058-069>072-212300-
...CENTRAL MISSOURI...

CITY           SKY/WX    TMP DP  RH WIND       PRES   REMARKS
COLUMBIA       CLOUDY    66  27  23 NE16G23   30.15S
JEFFERSON CITY CLOUDY    67  26  21 NE12G25   30.14F
ROLLA          CLOUDY    66  34  30 NE12      30.13S
SEDALIA        CLOUDY    67  33  28 E10       30.15R
WHITEMAN AFB   PTSUNNY   66  32  28 SE14      30.09S
WARRENSBURG    CLOUDY    64  32  29 E13G20    30.12S
OSAGE BEACH    CLOUDY    68  34  28 NE13      30.12R

$$
MOZ051-052-059>065-212300-
...EAST CENTRAL MISSOURI...

CITY           SKY/WX    TMP DP  RH WIND       PRES   REMARKS
ST LOUIS INTL  PTSUNNY   65  31  28 E13       30.20R
SPIRIT OF STL  MOSUNNY   66  34  30 NE15      30.16S
ST CHARLES     PTSUNNY   65  32  29 E16       30.20R

$$
MOZ072>076-082>087-097>100-106>115-212300-
...SOUTH CENTRAL AND SOUTHEAST MISSOURI...

CITY           SKY/WX    TMP DP  RH WIND       PRES   REMARKS
CAPE GIRARDEAU FAIR      69  41  36 E6        30.14R
FARMINGTON     MOSUNNY   68  40  35 E9        30.16R
POPLAR BLUFF   FAIR      70  35  27 E10       30.12S
WEST PLAINS    PTSUNNY   68  32  26 E10G22    30.13R

$$




USA.gov is the U.S. government's official web portal to all federal, state and local government web resources and services.